Wind_Speed
12 13 13 12 12 12 12 14 13 13 11 11 11 10 9 8 7 7 6 5 5 5 5 5 5 5 5 5 4 4 3 3 3 3 3 3 3 3 3 2 2 2 2 2 2 2 2 2 2
13 13 13 13 13 13 13 13 13 12 11 11 10 9 8 7 7 6 6 5 5 5 4 4 4 4 4 4 4 4 4 4 4 4 3 4 4 3 2 2 2 3 2 2 2 2 2 2 2
13 13 13 13 14 14 13 13 13 12 11 11 10 9 8 7 6 5 5 6 6 5 5 5 4 4 4 4 4 4 4 4 4 4 4 4 4 3 3 2 2 2 2 1 1 2 2 2 2
13 12 12 13 14 15 14 14 13 12 11 11 10 9 8 8 6 5 5 6 6 6 5 5 5 5 4 4 4 4 4 4 4 4 4 5 4 3 3 3 3 2 2 1 1 1 1 1 1
13 12 11 13 15 15 14 13 14 12 12 12 11 10 9 8 7 5 6 6 6 6 6 5 5 4 4 4 4 4 5 4 5 5 5 4 4 3 3 3 3 3 2 1 1 1 1 1 1
12 12 12 13 14 14 14 13 13 12 13 12 12 12 11 9 9 7 6 6 5 5 5 5 5 4 3 3 4 4 4 4 4 4 4 4 4 4 4 3 2 3 4 3 3 3 2 3 3
11 12 13 14 14 14 14 13 13 13 13 13 13 12 12 10 9 8 7 6 5 5 5 4 4 4 3 3 3 3 3 3 3 4 4 4 5 4 4 3 3 3 4 5 5 5 4 4 4
12 12 13 14 13 14 13 13 13 13 13 14 14 13 11 11 10 9 8 7 6 6 5 5 4 4 4 3 3 3 3 3 3 3 4 4 4 3 3 3 3 4 4 5 4 4 4 4 3
11 11 12 13 13 13 14 13 13 13 14 14 14 13 12 11 10 9 9 8 7 6 6 5 4 4 4 3 3 2 2 3 3 3 3 3 3 3 2 3 3 3 3 3 3 3 3 3 2
10 10 11 11 12 12 12 13 14 13 14 14 14 13 13 12 10 9 9 9 8 7 6 4 4 4 3 3 3 3 3 3 3 3 3 3 2 2 2 2 3 3 3 3 3 3 4 4 3
9 9 9 10 11 11 11 11 12 12 13 13 13 13 13 13 11 10 9 8 8 7 6 5 4 4 3 3 3 3 3 3 3 3 3 2 2 2 1 1 2 2 2 2 3 3 4 3 3
8 8 8 9 10 10 10 10 11 11 12 13 13 14 14 13 12 11 10 8 7 7 6 5 4 4 4 3 3 3 3 3 3 2 3 2 2 2 2 2 2 2 1 2 3 3 3 2 3
7 7 7 6 7 9 9 9 10 10 11 12 12 13 13 13 12 11 11 9 8 7 7 6 5 5 5 4 3 3 3 3 3 3 3 2 2 2 3 2 1 1 2 2 2 3 2 2 2
5 4 4 4 5 8 9 9 9 10 10 11 12 12 13 12 12 12 11 10 9 9 8 8 7 6 5 4 3 3 3 3 4 4 3 2 2 3 2 2 1 1 1 1 2 2 2 2 3
2 3 2 3 4 7 7 8 8 9 9 10 10 11 12 11 11 11 11 10 10 9 8 8 7 7 5 5 3 3 3 3 3 3 3 3 3 2 2 1 1 1 1 1 1 1 2 2 1
2 1 1 2 3 4 5 6 7 7 8 8 9 10 10 10 10 10 10 10 10 10 9 8 8 7 6 5 5 4 4 3 3 3 3 2 2 2 2 1 1 1 1 0 0 1 1 2 2
3 2 2 1 1 3 3 4 4 5 5 6 7 9 9 9 9 9 10 10 10 10 9 8 7 7 7 6 6 5 4 4 3 3 2 2 3 3 2 1 1 1 0 1 1 1 1 2 3
4 4 4 3 2 2 2 3 2 3 4 5 6 8 8 8 8 9 9 9 9 9 8 7 7 7 8 7 6 5 4 4 3 2 2 2 2 2 1 1 1 0 1 1 1 1 2 3 3
6 5 6 5 3 3 2 2 2 3 3 5 6 6 7 8 8 8 8 9 8 9 8 7 7 7 8 7 5 4 3 3 3 2 1 1 1 1 1 1 1 1 1 1 2 2 2 3 3
7 7 7 6 5 5 4 3 2 3 4 5 5 4 5 7 8 8 8 8 7 7 7 7 7 7 7 7 6 4 3 2 1 1 1 1 0 0 1 1 2 2 2 2 2 3 3 4 5
7 7 7 7 7 7 6 5 4 3 3 4 4 4 4 6 6 7 8 7 6 6 6 5 5 6 6 6 6 4 3 2 2 1 1 1 1 2 2 2 3 3 4 4 4 4 5 6 7
9 8 7 7 7 8 8 8 6 5 4 4 4 3 4 5 5 6 7 6 5 5 5 5 4 4 4 4 4 4 3 2 2 2 2 2 3 3 4 4 4 4 5 5 6 6 7 7 7
10 8 8 8 8 10 9 9 6 6 6 4 4 3 4 4 5 5 6 5 4 4 4 4 4 4 4 4 3 3 3 2 2 3 3 3 4 5 5 6 6 6 7 7 7 7 8 8 8
9 9 10 10 10 11 10 9 8 7 7 6 5 5 4 4 4 4 4 4 4 4 4 4 4 3 3 3 3 3 3 3 3 4 4 5 6 6 7 7 8 8 9 9 9 9 9 10 10
11 11 11 12 12 10 10 11 9 7 8 7 7 6 5 4 4 4 5 4 5 5 5 5 4 4 4 4 3 3 4 5 5 6 6 7 7 8 9 9 9 10 10 9 9 10 10 11 12
11 12 13 12 11 10 10 9 9 9 10 8 8 7 7 6 5 6 6 5 5 6 6 5 5 5 5 5 5 5 6 6 7 7 8 8 8 8 9 9 9 9 10 10 11 12 12 13 14
11 12 12 13 12 12 10 11 10 10 8 8 8 8 8 7 5 5 6 6 6 6 6 6 7 6 6 6 7 8 8 8 9 9 9 9 10 10 10 11 11 11 11 12 13 13 14 15 16
12 12 13 13 12 12 12 11 11 11 9 9 11 11 10 8 7 6 5 6 6 7 7 7 7 7 7 8 8 10 10 10 10 11 11 11 12 12 12 13 13 13 14 14 15 16 16 16 17
14 14 15 14 14 14 14 12 12 12 11 10 11 11 11 10 8 8 7 8 8 8 8 8 8 8 9 9 10 11 12 12 12 13 13 13 14 14 14 15 15 15 16 16 17 18 18 18 18
17 16 17 17 16 16 16 14 13 13 13 11 11 12 11 9 9 10 10 9 8 9 9 9 8 8 9 10 11 12 12 13 14 15 14 14 15 15 15 16 16 16 17 17 18 18 19 19 19
Wind_Direction
82 81 76 72 70 68 63 61 58 51 41 39 38 41 38 40 47 61 64 71 70 74 82 84 94 96 98 98 97 100 103 107 107 100 97 102 109 112 108 104 135 160 158 156 172 187 211 226 233
79 77 73 70 67 65 60 56 52 51 43 40 37 40 41 42 49 60 63 65 65 73 81 80 91 96 104 105 106 104 103 102 104 103 108 102 98 106 111 112 136 155 157 153 177 209 231 241 268
78 72 69 72 69 67 60 53 47 41 39 37 35 37 42 44 49 50 56 63 63 72 82 82 92 96 103 106 107 108 105 104 106 106 109 106 106 105 100 93 130 141 150 151 192 230 238 268 276
77 73 69 72 67 63 57 52 50 37 39 36 35 38 40 44 51 51 55 66 65 70 80 78 86 95 104 110 111 107 110 111 109 109 112 113 112 108 103 92 106 123 138 177 248 247 277 304 281
77 73 68 66 63 57 53 50 48 39 38 37 37 40 40 47 51 54 63 67 68 71 78 76 81 86 100 115 117 114 118 111 107 106 109 111 108 107 95 100 102 97 93 64 10 359 6 40 72
76 69 67 65 58 53 49 45 42 38 36 37 39 40 41 48 50 53 58 65 69 73 77 81 80 81 93 116 122 121 119 110 109 104 108 105 108 111 111 107 104 94 83 69 51 67 72 63 74
76 72 68 60 56 53 51 49 43 40 36 34 38 38 42 45 47 50 53 57 67 75 74 87 84 82 91 114 121 116 121 121 111 103 99 109 108 106 99 92 96 83 81 77 65 64 68 79 85
73 70 69 61 55 52 51 53 46 39 36 36 38 39 42 47 51 53 52 53 60 68 71 86 77 88 101 117 114 104 123 129 119 104 98 100 105 98 91 85 84 71 70 74 71 67 65 74 87
73 73 69 62 58 55 53 53 48 42 37 36 39 40 43 45 52 57 56 58 61 63 68 73 79 87 90 99 99 95 115 128 121 112 103 98 100 98 91 83 72 70 66 66 61 64 67 64 82
74 74 70 62 57 56 53 51 49 43 41 39 40 41 44 46 53 58 59 59 59 61 63 70 80 85 90 92 91 92 109 117 115 122 115 113 104 89 84 80 71 74 67 69 62 62 63 69 71
73 75 69 58 54 53 50 50 49 44 41 40 40 42 41 44 51 57 56 54 53 56 63 68 78 76 77 83 91 100 120 128 126 125 125 121 105 93 91 99 87 83 74 75 66 64 69 78 67
81 78 67 55 49 48 46 47 45 43 41 40 40 40 40 42 47 50 51 52 52 55 63 64 67 64 65 82 99 110 129 132 140 137 138 120 106 89 98 113 109 99 84 64 62 73 74 82 63
85 73 58 53 52 52 47 47 45 40 41 39 41 41 44 44 45 45 45 49 51 50 58 62 66 65 65 77 92 106 116 130 148 143 143 141 129 115 105 87 83 90 70 58 68 69 59 60 44
105 75 51 52 62 55 50 49 46 41 38 37 39 40 43 42 42 43 43 45 46 48 50 56 65 66 62 65 80 107 107 122 140 150 144 140 137 132 128 101 84 90 76 64 59 51 20 27 36
134 100 78 75 61 53 52 47 41 36 36 36 36 37 40 40 40 42 41 41 45 49 51 56 60 63 63 61 77 105 109 116 135 135 123 124 124 135 128 135 114 109 103 83 59 34 23 29 12
204 150 143 87 51 43 33 37 40 34 35 30 32 32 34 37 40 42 41 41 46 51 53 57 59 59 63 66 71 90 96 105 122 131 113 104 103 106 106 81 104 132 162 122 346 355 350 353 353
248 242 260 234 24 15 12 27 33 24 24 28 33 29 28 30 36 39 40 40 41 45 50 54 55 56 60 62 73 83 83 91 109 114 112 100 94 91 87 70 101 136 110 10 328 330 329 333 344
267 244 261 271 293 324 347 1 4 14 10 14 24 30 27 27 31 36 38 40 39 41 48 52 54 57 59 59 67 72 79 83 89 105 122 129 97 74 60 78 66 69 8 347 329 312 312 317 320
267 254 256 259 258 279 283 310 359 347 356 1 2 19 23 24 24 31 34 38 40 42 45 51 54 51 47 47 56 60 62 76 84 105 123 120 89 66 39 30 12 357 346 335 325 321 326 329 316
259 259 256 253 254 255 266 259 279 308 327 335 354 11 18 15 17 23 25 34 43 42 42 47 50 45 40 36 38 47 60 72 77 91 91 79 86 306 309 344 338 328 324 320 319 325 325 322 316
251 246 251 257 256 259 253 251 265 279 299 308 335 351 3 5 11 11 16 25 30 36 34 30 31 33 34 31 31 40 47 49 41 13 289 287 285 280 276 286 306 312 309 311 314 311 312 311 307
243 243 247 257 261 250 244 246 248 265 278 289 315 327 335 348 359 4 10 12 18 24 21 17 14 15 19 22 28 29 16 1 345 332 309 299 287 278 279 281 289 299 301 304 307 307 309 308 303
237 246 254 249 248 246 247 254 256 261 280 290 295 310 323 334 343 353 358 354 355 1 5 7 359 356 5 9 9 10 2 341 318 311 306 301 292 286 283 282 283 288 293 298 300 302 304 304 302
237 254 252 245 244 254 255 256 259 262 277 282 279 282 299 307 323 335 339 332 331 336 345 356 355 345 342 344 346 345 344 333 321 308 304 301 296 292 287 281 281 284 286 291 296 298 299 297 297
236 252 255 249 246 251 253 260 263 272 273 269 273 262 265 287 302 304 307 308 305 313 322 331 336 329 321 323 322 318 318 316 319 321 309 301 297 291 283 281 283 284 286 288 291 294 294 294 294
244 251 252 251 248 246 250 263 272 276 274 272 273 264 256 270 284 283 283 282 286 294 301 310 317 319 310 308 308 304 305 307 305 305 302 299 298 298 292 287 286 285 286 287 290 292 294 294 294
249 249 247 248 251 251 256 269 274 276 283 274 269 267 259 260 269 287 280 268 279 285 287 293 302 307 305 299 300 301 300 300 297 296 295 294 293 294 294 291 289 288 288 287 288 288 290 292 292
244 248 246 248 250 252 260 268 274 275 275 277 278 278 271 269 266 276 284 276 271 276 283 289 289 293 297 298 296 300 299 295 292 291 290 290 291 292 292 290 290 289 288 289 289 288 288 290 292
234 236 241 242 245 256 267 268 272 269 273 282 286 282 280 272 271 263 267 277 269 267 274 281 282 282 286 292 295 297 298 296 291 287 287 288 288 289 290 288 288 288 289 289 291 290 290 291 291
236 237 239 240 243 252 260 267 270 272 274 279 285 286 286 285 280 270 269 275 273 273 273 273 276 283 287 291 294 296 298 297 296 290 286 285 285 284 285 286 287 288 289 289 290 292 290 292 292
Height
5899 5898 5898 5898 5898 5897 5895 5895 5894 5894 5894 5893 5892 5891 5891 5890 5890 5891 5888 5886 5886 5886 5886 5886 5886 5887 5887 5887 5887 5888 5888 5888 5888 5888 5888 5888 5888 5888 5887 5887 5887 5887 5887 5887 5887 5887 5887 5887 5887
5900 5900 5900 5900 5898 5897 5897 5896 5895 5895 5895 5894 5893 5892 5891 5890 5889 5888 5887 5887 5886 5886 5887 5887 5887 5887 5888 5888 5888 5888 5888 5889 5889 5889 5889 5889 5888 5888 5888 5888 5887 5887 5887 5887 5887 5887 5887 5886 5886
5901 5901 5902 5901 5899 5899 5898 5897 5896 5896 5895 5895 5894 5893 5892 5891 5890 5889 5888 5888 5887 5887 5887 5887 5888 5888 5888 5888 5889 5889 5889 5889 5890 5890 5889 5889 5889 5889 5889 5888 5888 5888 5888 5887 5887 5887 5886 5886 5885
5903 5903 5903 5901 5900 5899 5899 5898 5897 5897 5896 5895 5894 5893 5892 5892 5891 5890 5889 5888 5888 5888 5888 5888 5888 5889 5889 5889 5889 5889 5890 5890 5890 5890 5890 5890 5890 5889 5889 5889 5888 5888 5888 5888 5887 5886 5886 5885 5884
5904 5904 5903 5902 5901 5901 5900 5899 5898 5898 5897 5896 5895 5894 5893 5892 5891 5890 5890 5889 5889 5889 5889 5889 5889 5889 5890 5890 5890 5890 5890 5890 5891 5891 5891 5891 5890 5890 5889 5889 5889 5889 5888 5888 5887 5887 5886 5884 5882
5906 5905 5904 5903 5902 5902 5902 5901 5900 5900 5898 5897 5896 5895 5893 5893 5892 5891 5890 5890 5890 5890 5890 5890 5890 5890 5890 5890 5890 5891 5891 5891 5891 5891 5891 5891 5891 5891 5890 5890 5890 5889 5889 5888 5888 5887 5886 5885 5883
5907 5906 5905 5905 5904 5904 5903 5902 5901 5900 5899 5898 5897 5896 5894 5893 5892 5891 5891 5891 5890 5890 5890 5891 5890 5891 5891 5891 5891 5891 5891 5892 5892 5892 5892 5892 5892 5891 5891 5891 5891 5890 5890 5889 5889 5888 5887 5885 5884
5908 5909 5907 5907 5906 5906 5905 5903 5903 5901 5900 5899 5898 5897 5895 5895 5893 5892 5892 5891 5891 5891 5891 5891 5891 5891 5891 5891 5891 5891 5892 5892 5892 5893 5892 5892 5892 5892 5892 5892 5891 5891 5890 5890 5889 5888 5888 5887 5886
5910 5911 5909 5908 5908 5907 5906 5906 5905 5903 5902 5900 5899 5898 5897 5896 5895 5894 5893 5893 5892 5891 5891 5891 5891 5891 5891 5891 5892 5892 5892 5892 5893 5893 5893 5893 5893 5893 5893 5892 5892 5892 5891 5890 5890 5889 5888 5888 5887
5911 5911 5910 5910 5909 5909 5908 5907 5906 5905 5903 5902 5901 5900 5898 5897 5896 5895 5894 5894 5893 5892 5892 5891 5891 5891 5891 5892 5892 5892 5892 5893 5893 5893 5893 5893 5893 5893 5893 5893 5892 5892 5892 5891 5891 5890 5889 5888 5887
5911 5912 5911 5911 5910 5910 5909 5908 5908 5906 5905 5904 5903 5901 5900 5898 5897 5896 5895 5894 5893 5893 5893 5892 5892 5892 5892 5892 5892 5892 5892 5893 5893 5893 5893 5893 5893 5893 5893 5893 5893 5892 5892 5892 5891 5890 5889 5889 5888
5912 5912 5912 5912 5911 5911 5910 5909 5909 5908 5907 5906 5904 5902 5901 5899 5898 5897 5896 5895 5895 5894 5893 5893 5892 5892 5892 5892 5892 5892 5893 5893 5893 5893 5893 5893 5893 5893 5893 5893 5893 5893 5892 5892 5891 5890 5889 5889 5888
5913 5913 5913 5912 5912 5912 5911 5911 5910 5909 5908 5907 5905 5904 5902 5901 5900 5898 5897 5897 5895 5895 5894 5893 5892 5892 5892 5892 5892 5892 5893 5893 5893 5893 5893 5893 5893 5893 5893 5893 5893 5892 5892 5892 5892 5891 5890 5889 5888
5913 5913 5913 5912 5912 5912 5912 5912 5911 5910 5909 5907 5906 5905 5904 5902 5901 5900 5899 5897 5896 5895 5894 5893 5892 5893 5892 5892 5892 5892 5892 5892 5893 5893 5893 5893 5893 5893 5893 5893 5893 5893 5892 5892 5891 5891 5890 5889 5888
5914 5914 5914 5913 5913 5912 5913 5913 5912 5911 5910 5908 5907 5906 5905 5904 5902 5901 5900 5898 5897 5896 5895 5894 5893 5893 5892 5892 5892 5892 5892 5892 5893 5893 5893 5893 5893 5893 5893 5893 5892 5892 5892 5892 5891 5890 5890 5889 5888
5914 5914 5914 5914 5913 5913 5914 5913 5912 5911 5910 5909 5908 5907 5906 5905 5903 5902 5901 5899 5898 5896 5895 5895 5894 5893 5892 5892 5892 5892 5892 5892 5893 5893 5893 5893 5893 5893 5893 5892 5892 5892 5892 5891 5891 5890 5889 5889 5888
5913 5913 5914 5914 5913 5912 5912 5912 5912 5910 5910 5910 5909 5908 5907 5906 5904 5903 5902 5900 5898 5897 5896 5895 5894 5893 5893 5892 5892 5892 5892 5892 5893 5893 5893 5893 5893 5893 5892 5892 5892 5891 5891 5891 5890 5890 5889 5888 5887
5912 5912 5912 5912 5912 5911 5911 5912 5911 5909 5909 5909 5909 5908 5907 5906 5905 5904 5902 5901 5899 5898 5897 5896 5895 5894 5893 5893 5892 5892 5892 5892 5892 5892 5893 5893 5893 5892 5892 5892 5891 5891 5891 5890 5889 5889 5888 5888 5887
5910 5911 5911 5911 5911 5910 5911 5911 5911 5910 5909 5909 5909 5909 5908 5907 5905 5904 5903 5902 5900 5899 5898 5897 5896 5895 5894 5893 5893 5892 5892 5892 5892 5892 5892 5892 5892 5892 5892 5891 5891 5890 5890 5889 5889 5888 5888 5887 5886
5908 5908 5909 5910 5909 5909 5909 5909 5909 5909 5908 5909 5908 5908 5908 5907 5906 5905 5904 5902 5901 5900 5899 5898 5897 5896 5895 5894 5893 5892 5892 5892 5892 5892 5892 5892 5892 5892 5891 5891 5890 5890 5889 5889 5888 5887 5886 5886 5885
5906 5907 5908 5908 5908 5907 5907 5907 5907 5908 5907 5907 5907 5907 5907 5907 5906 5904 5903 5902 5901 5900 5899 5898 5897 5896 5895 5894 5893 5892 5892 5892 5892 5891 5891 5891 5890 5890 5890 5889 5889 5889 5888 5887 5887 5886 5885 5884 5883
5904 5905 5906 5905 5905 5904 5906 5906 5906 5906 5906 5906 5906 5906 5906 5906 5905 5904 5903 5902 5901 5900 5899 5898 5897 5896 5894 5894 5893 5892 5892 5891 5891 5890 5890 5889 5889 5889 5888 5888 5887 5887 5886 5886 5885 5884 5883 5882 5881
5901 5902 5903 5903 5903 5903 5904 5904 5905 5905 5905 5905 5905 5905 5905 5905 5904 5903 5902 5901 5900 5899 5898 5897 5896 5895 5894 5893 5893 5892 5891 5890 5890 5889 5889 5888 5887 5887 5886 5886 5885 5884 5884 5883 5882 5881 5880 5879 5878
5899 5900 5900 5901 5901 5902 5902 5902 5903 5903 5903 5903 5903 5904 5904 5903 5903 5901 5900 5900 5899 5898 5898 5896 5895 5894 5893 5892 5892 5891 5890 5889 5889 5888 5887 5886 5885 5885 5884 5883 5882 5882 5881 5880 5879 5878 5877 5876 5875
5896 5898 5898 5898 5898 5900 5900 5900 5902 5901 5901 5900 5901 5901 5901 5901 5900 5900 5899 5898 5898 5897 5896 5895 5894 5893 5892 5891 5891 5890 5889 5888 5887 5886 5885 5885 5883 5882 5881 5880 5879 5879 5878 5877 5876 5875 5874 5873 5872
5893 5895 5896 5896 5896 5897 5898 5897 5899 5898 5898 5898 5898 5898 5898 5898 5897 5897 5896 5896 5895 5895 5894 5893 5892 5891 5890 5890 5889 5888 5887 5886 5885 5884 5883 5882 5881 5880 5879 5878 5877 5876 5875 5874 5873 5872 5871 5869 5868
5890 5891 5892 5893 5893 5894 5894 5895 5895 5895 5895 5895 5895 5895 5895 5895 5894 5894 5893 5892 5892 5892 5892 5891 5890 5889 5888 5888 5887 5886 5885 5884 5883 5882 5881 5880 5879 5877 5876 5875 5873 5872 5871 5870 5869 5868 5867 5865 5864
5887 5888 5889 5889 5890 5890 5892 5892 5893 5892 5892 5891 5892 5892 5891 5892 5892 5891 5891 5890 5889 5889 5889 5888 5887 5887 5886 5885 5884 5883 5882 5881 5880 5879 5878 5876 5875 5874 5873 5871 5870 5869 5868 5866 5865 5864 5862 5861 5860
5884 5885 5885 5886 5887 5887 5888 5891 5889 5889 5889 5889 5888 5889 5888 5889 5889 5888 5887 5887 5886 5885 5885 5885 5884 5884 5883 5882 5881 5880 5878 5877 5876 5875 5873 5872 5871 5870 5868 5867 5866 5864 5863 5862 5860 5859 5857 5856 5854
5879 5881 5882 5883 5884 5884 5884 5888 5886 5885 5885 5886 5885 5885 5885 5885 5885 5884 5883 5882 5882 5882 5882 5881 5881 5880 5880 5879 5878 5876 5875 5873 5872 5870 5868 5867 5866 5865 5863 5862 5860 5859 5858 5856 5855 5853 5852 5850 5849